When you browse on this site, cookies collect data to enhance your experience and personalize the content and advertising you see.
Visit our Privacy Policy to learn more. By continuing to use the site, you agree to this use of cookies and data.
  • In Portugal
  • List of Countries
  • For 7 days
  • Water Temperature
  • Satellite Maps
  • Weather Map
  • Weather Widgets
  • user-avatar
    Login

    Hourly Weather Trypolis

    Today, 16 June, Sunday

    Time Temperature Precipitation Wind Pressure Humidity
    00:00 +32°C° 0 mm 5 mps 759 mmHg 30%
    01:00 +32°C° 0 mm 5 mps 759 mmHg 29%
    02:00 +30°C° 0 mm 4 mps 759 mmHg 31%
    03:00 +29°C° 0 mm 4 mps 759 mmHg 32%
    04:00 +29°C° 0 mm 4 mps 759 mmHg 34%
    05:00 +29°C° 0 mm 4 mps 759 mmHg 35%
    06:00 +30°C° 0 mm 5 mps 759 mmHg 35%
    07:00 +32°C° 0 mm 4 mps 759 mmHg 32%
    08:00 +34°C° 0 mm 4 mps 759 mmHg 28%
    09:00 +36°C° 0 mm 3 mps 759 mmHg 25%
    10:00 +38°C° 0 mm 3 mps 759 mmHg 22%
    11:00 +37°C° 0 mm 4 mps 759 mmHg 25%
    12:00 +36°C° 0 mm 5 mps 759 mmHg 28%
    13:00 +35°C° 0 mm 6 mps 759 mmHg 31%
    14:00 +35°C° 0 mm 6 mps 759 mmHg 31%
    15:00 +34°C° 0 mm 6 mps 758 mmHg 31%
    16:00 +34°C° 0 mm 6 mps 758 mmHg 31%
    17:00 +33°C° 0 mm 5 mps 758 mmHg 34%
    18:00 +30°C° 0 mm 5 mps 758 mmHg 37%
    19:00 +29°C° 0 mm 4 mps 758 mmHg 39%
    20:00 +29°C° 0 mm 4 mps 758 mmHg 42%
    21:00 +28°C° 0 mm 4 mps 759 mmHg 44%
    22:00 +28°C° 0 mm 3 mps 759 mmHg 46%
    23:00 +27°C° 0 mm 3 mps 759 mmHg 49%

    Tomorrow, 17 June, Monday

    Time Temperature Precipitation Wind Pressure Humidity
    00:00 +27°C° 0 mm 3 mps 759 mmHg 52%
    01:00 +26°C° 0 mm 3 mps 759 mmHg 54%
    02:00 +26°C° 0 mm 3 mps 758 mmHg 53%
    03:00 +26°C° 0 mm 3 mps 758 mmHg 52%
    04:00 +26°C° 0 mm 3 mps 758 mmHg 51%
    05:00 +27°C° 0 mm 4 mps 758 mmHg 46%
    06:00 +28°C° 0 mm 4 mps 758 mmHg 42%
    07:00 +29°C° 0 mm 5 mps 758 mmHg 37%
    08:00 +33°C° 0 mm 5 mps 758 mmHg 31%
    09:00 +35°C° 0 mm 5 mps 758 mmHg 25%
    10:00 +39°C° 0 mm 5 mps 758 mmHg 18%
    11:00 +40°C° 0 mm 5 mps 757 mmHg 18%
    12:00 +41°C° 0 mm 6 mps 757 mmHg 18%
    13:00 +42°C° 0 mm 6 mps 757 mmHg 17%
    14:00 +40°C° 0 mm 7 mps 757 mmHg 20%
    15:00 +39°C° 0 mm 9 mps 756 mmHg 23%
    16:00 +38°C° 0 mm 10 mps 756 mmHg 25%
    17:00 +36°C° 0 mm 10 mps 756 mmHg 28%
    18:00 +34°C° 0 mm 10 mps 756 mmHg 31%
    19:00 +33°C° 0 mm 10 mps 756 mmHg 33%
    20:00 +33°C° 0 mm 8 mps 756 mmHg 30%
    21:00 +33°C° 0 mm 7 mps 756 mmHg 28%
    22:00 +33°C° 0 mm 6 mps 756 mmHg 25%
    23:00 +32°C° 0 mm 6 mps 756 mmHg 30%

    Day after tomorrow, 18 June, Tuesday

    Time Temperature Precipitation Wind Pressure Humidity
    00:00 +30°C° 0 mm 7 mps 756 mmHg 35%
    01:00 +29°C° 0 mm 7 mps 756 mmHg 41%
    02:00 +28°C° 0.1 mm 7 mps 756 mmHg 42%
    03:00 +28°C° 0.1 mm 6 mps 756 mmHg 43%
    04:00 +28°C° 0.1 mm 6 mps 756 mmHg 44%
    05:00 +28°C° 0 mm 7 mps 756 mmHg 48%
    06:00 +28°C° 0 mm 7 mps 757 mmHg 51%
    07:00 +28°C° 0 mm 7 mps 757 mmHg 55%
    08:00 +30°C° 0 mm 7 mps 757 mmHg 48%
    09:00 +33°C° 0 mm 7 mps 757 mmHg 42%
    10:00 +35°C° 0 mm 7 mps 757 mmHg 36%
    11:00 +36°C° 0 mm 7 mps 757 mmHg 35%
    12:00 +36°C° 0 mm 7 mps 757 mmHg 35%
    13:00 +37°C° 0 mm 8 mps 757 mmHg 35%
    14:00 +35°C° 0 mm 8 mps 757 mmHg 41%
    15:00 +33°C° 0 mm 9 mps 757 mmHg 47%
    16:00 +32°C° 0 mm 9 mps 757 mmHg 53%
    17:00 +31°C° 0 mm 9 mps 757 mmHg 56%
    18:00 +29°C° 0 mm 8 mps 757 mmHg 59%
    19:00 +28°C° 0 mm 7 mps 758 mmHg 63%
    20:00 +28°C° 0 mm 7 mps 758 mmHg 64%
    21:00 +27°C° 0 mm 6 mps 759 mmHg 66%
    22:00 +27°C° 0 mm 6 mps 759 mmHg 67%
    23:00 +27°C° 0 mm 5 mps 759 mmHg 68%

    19 June, Wednesday

    Time Temperature Precipitation Wind Pressure Humidity
    00:00 +26°C° 0 mm 4 mps 759 mmHg 69%
    01:00 +26°C° 0 mm 4 mps 759 mmHg 70%
    02:00 +26°C° 0 mm 4 mps 758 mmHg 72%
    03:00 +25°C° 0 mm 4 mps 758 mmHg 74%
    04:00 +25°C° 0 mm 3 mps 758 mmHg 77%
    05:00 +26°C° 0 mm 3 mps 759 mmHg 72%
    06:00 +26°C° 0 mm 3 mps 759 mmHg 68%
    07:00 +27°C° 0 mm 3 mps 759 mmHg 63%
    08:00 +29°C° 0 mm 3 mps 760 mmHg 54%
    09:00 +31°C° 0 mm 3 mps 760 mmHg 46%
    10:00 +34°C° 0 mm 3 mps 760 mmHg 37%
    11:00 +34°C° 0 mm 3 mps 760 mmHg 37%
    12:00 +34°C° 0 mm 4 mps 760 mmHg 37%
    13:00 +34°C° 0 mm 5 mps 759 mmHg 37%
    14:00 +34°C° 0 mm 5 mps 759 mmHg 36%
    15:00 +34°C° 0 mm 5 mps 759 mmHg 35%
    16:00 +34°C° 0 mm 5 mps 759 mmHg 33%
    17:00 +33°C° 0 mm 5 mps 759 mmHg 36%
    18:00 +32°C° 0 mm 4 mps 759 mmHg 39%
    19:00 +30°C° 0 mm 4 mps 759 mmHg 42%
    20:00 +30°C° 0 mm 4 mps 759 mmHg 43%
    21:00 +29°C° 0 mm 4 mps 759 mmHg 44%
    22:00 +29°C° 0 mm 4 mps 760 mmHg 45%
    23:00 +28°C° 0 mm 3 mps 759 mmHg 42%

    20 June, Thursday

    Time Temperature Precipitation Wind Pressure Humidity
    00:00 +28°C° 0 mm 3 mps 759 mmHg 39%
    01:00 +28°C° 0 mm 2 mps 759 mmHg 36%
    02:00 +28°C° 0 mm 2 mps 759 mmHg 38%
    03:00 +28°C° 0 mm 3 mps 758 mmHg 39%
    04:00 +27°C° 0 mm 3 mps 758 mmHg 41%
    05:00 +28°C° 0 mm 4 mps 759 mmHg 39%
    06:00 +29°C° 0 mm 4 mps 759 mmHg 37%
    07:00 +30°C° 0 mm 4 mps 759 mmHg 35%
    08:00 +33°C° 0 mm 4 mps 759 mmHg 31%
    09:00 +34°C° 0 mm 4 mps 759 mmHg 26%
    10:00 +36°C° 0 mm 3 mps 760 mmHg 22%
    11:00 +37°C° 0 mm 4 mps 759 mmHg 21%
    12:00 +37°C° 0 mm 4 mps 759 mmHg 21%
    13:00 +38°C° 0 mm 4 mps 759 mmHg 20%
    14:00 +39°C° 0 mm 5 mps 759 mmHg 21%
    15:00 +37°C° 0 mm 5 mps 759 mmHg 21%
    16:00 +37°C° 0 mm 5 mps 758 mmHg 21%
    17:00 +36°C° 0 mm 5 mps 758 mmHg 24%
    18:00 +35°C° 0 mm 5 mps 758 mmHg 27%
    19:00 +33°C° 0 mm 5 mps 759 mmHg 30%
    20:00 +33°C° 0 mm 5 mps 759 mmHg 30%
    21:00 +32°C° 0 mm 5 mps 759 mmHg 30%
    22:00 +32°C° 0 mm 5 mps 759 mmHg 31%
    23:00 +32°C° 0 mm 4 mps 759 mmHg 30%

    21 June, Friday

    Time Temperature Precipitation Wind Pressure Humidity
    00:00 +30°C° 0 mm 4 mps 759 mmHg 29%
    01:00 +30°C° 0 mm 3 mps 759 mmHg 28%
    02:00 +30°C° 0 mm 3 mps 759 mmHg 28%
    03:00 +29°C° 0 mm 3 mps 759 mmHg 28%
    04:00 +29°C° 0 mm 4 mps 758 mmHg 28%
    05:00 +30°C° 0 mm 4 mps 759 mmHg 26%
    06:00 +32°C° 0 mm 4 mps 759 mmHg 24%
    07:00 +33°C° 0 mm 4 mps 759 mmHg 22%
    08:00 +35°C° 0 mm 4 mps 759 mmHg 19%
    09:00 +37°C° 0 mm 4 mps 759 mmHg 16%
    10:00 +40°C° 0 mm 5 mps 759 mmHg 12%
    11:00 +40°C° 0 mm 5 mps 759 mmHg 13%
    12:00 +41°C° 0 mm 6 mps 759 mmHg 14%
    13:00 +42°C° 0 mm 6 mps 759 mmHg 15%
    14:00 +41°C° 0 mm 7 mps 759 mmHg 16%
    15:00 +40°C° 0 mm 7 mps 758 mmHg 17%
    16:00 +39°C° 0 mm 8 mps 758 mmHg 18%
    17:00 +39°C° 0 mm 8 mps 758 mmHg 19%
    18:00 +38°C° 0 mm 8 mps 758 mmHg 20%
    19:00 +36°C° 0 mm 7 mps 758 mmHg 21%
    20:00 +35°C° 0 mm 7 mps 759 mmHg 21%
    21:00 +34°C° 0 mm 7 mps 759 mmHg 21%
    22:00 +33°C° 0 mm 7 mps 759 mmHg 21%
    23:00 +33°C° 0 mm 6 mps 759 mmHg 22%
    Show more